Showing default

JILIN-01 GAOFEN 3D 28, 52445

Orbit data source: Space-Track

JILIN-01 GAOFEN 3D 28, 52445 is a payload satellite owned by Changguang WJ (CN) in SSO that was launched on Thu, 05 May 2022 UTC via a CHANG ZHENG 2D launch vehicle from the Taiyaun Space Center, China (TSC). Payload-class satellites include a variety of spacecraft equipped with specific instruments for various scientific and technological missions. These include communications satellites like Starlink; space stations such as the ISS; scientific satellites like the Hubble; Earth observation satellites from companies like Planet Labs, Umbra, and HawkEye 360; GPS; miniature CubeSats for education and research; and military/defense satellites.

Loading next visibility...
Identifier
52445, 2022-048C
Orbit
SSO
Country
Flag of CNCN / PRC
Related business
Manufacturer
Changguang WJ
Mission
Operational Commercial Imaging
Bus & Motor
JL-1, Unknown motor
Mass
42 kg wet, 42 kg dry
Launch date (UTC)
2022-05-05 (4 years ago)
Launch vehicle
CHANG ZHENG 2D
Launch site
Taiyaun Space Center, China (TSC)
Object type
Payload
Rocket body
Debris
Shape & HBR
Box + 2 Pan, 0.8 m
Radar Cross Section
2.000 m², Medium (>0.1 m² and < 1m²)

Expand to show TLE details & history
Last TLE update: 7 hours ago

TLE from 7 hours ago
0 JILIN-01 GAOFEN 3D 28
1 52445U 22048C   26166.25229389  .00118592  00000-0  69616-3 0  9994
2 52445  97.5658 280.1539 0000744 185.0881 175.0378 15.77931737229224
Epoch: 2026-06-15T06:03Z
TLE epoch observation values (Epoch: 2026-06-15T06:03:18.192Z)
Latitude
0.00006°
Longitude
-74.21326°
Altitude
339.963 km
Speed
7.704 km/s
True Right ascension
18h 40m 36s
True Declination
0° 00' 00"
Sunlit
Object was in full shadow at epoch
Visualization orbit readout
Latitude
Unknown
Longitude
Unknown
Altitude
Unknown
Speed
Unknown
Apparent Right ascension
Unknown
Apparent Declination
Unknown
Sunlit
N/A
Visualization observer readout
Local Sidereal Time
23:17:12
Azimuth
Unknown
Elevation
Unknown
Doppler factor
Unknown
Orbital elements
Apogee altitude
333.697 km
Perigee altitude
332.698 km
Semi-major axis
6,711.335 km
Eccentricity
0.00007
Inclination
97.5658°
RAAN
280.1539°
Arg. of periapsis
185.0881°
True anomaly
175.03854°
Mean anomaly
175.0378°
Eccentric anomaly
175.03817°
Mean motion
3.94757 °/min
Orbital period
91.2 mins
BSTAR
0.00069616
Loading maneuver chart data...
Computing Atmospheric mass density...
Loading historical data...
Loading historical data...
Loading historical data...
Loading historical data...
Loading historical data...
Loading historical data...
Loading historical data...

Documentation

Showing up to 5 results
|